Location: Chaumontel
(49.1247°N, 2.4324°E)
Time: 23:47:44
(UTC+00:00)

IRIDIUM 103 - Pass Details

Date: 14 May 2025
Orbit: 775 x 779 km, 86.4° (Epoch: 12 June)

Event Time Altitude Azimuth Distance (km) Brightness Sun altitude
Exits shadow 23:47:19 - 108° (ESE) 2,525 6.8 -22.0°
Reaches altitude 10° 23:48:17 10° 99° (E) 2,335 6.7 -22.0°
Maximum altitude 23:50:35 13° 73° (ENE) 2,132 6.8 -22.0°
Drops below altitude 10° 23:52:53 10° 46° (NE) 2,342 7.4 -22.0°
Sets 23:56:32 0° 20° (NNE) 3,275 8.8 -22.0°
